Hourly Weather Barnimie

Today, 6 May, Thursday

Time Temperature Precipitation Wind Pressure Humidity
00:00 +2°C° 0 mm 8 mps 743 mmHg 73%
01:00 +2°C° 0 mm 9 mps 744 mmHg 70%
02:00 +2°C° 0 mm 8 mps 744 mmHg 68%
03:00 +2°C° 0 mm 8 mps 744 mmHg 66%
04:00 +2°C° 0 mm 8 mps 744 mmHg 64%
05:00 +2°C° 0 mm 8 mps 745 mmHg 66%
06:00 +2°C° 0 mm 8 mps 745 mmHg 67%
07:00 +2°C° 0 mm 8 mps 745 mmHg 69%
08:00 +4°C° 0 mm 8 mps 745 mmHg 61%
09:00 +6°C° 0 mm 8 mps 746 mmHg 53%
10:00 +7°C° 0 mm 8 mps 746 mmHg 45%
11:00 +7°C° 0 mm 8 mps 746 mmHg 46%
12:00 +9°C° 0 mm 7 mps 746 mmHg 48%
13:00 +9°C° 0 mm 7 mps 746 mmHg 50%
14:00 +8°C° 0.2 mm 6 mps 746 mmHg 54%
15:00 +8°C° 0.2 mm 5 mps 746 mmHg 58%
16:00 +8°C° 0.2 mm 4 mps 745 mmHg 62%
17:00 +7°C° 0.1 mm 4 mps 745 mmHg 63%
18:00 +7°C° 0.1 mm 3 mps 745 mmHg 65%
19:00 +7°C° 0.1 mm 3 mps 745 mmHg 67%
20:00 +6°C° 0 mm 2 mps 745 mmHg 69%
21:00 +5°C° 0 mm 2 mps 745 mmHg 72%
22:00 +4°C° 0 mm 2 mps 745 mmHg 75%
23:00 +5°C° 0 mm 1 mps 745 mmHg 75%

Tomorrow, 7 May, Friday

Time Temperature Precipitation Wind Pressure Humidity
00:00 +5°C° 0 mm 1 mps 745 mmHg 75%
01:00 +4°C° 0 mm 0 mps 745 mmHg 75%
02:00 +5°C° 0 mm 1 mps 745 mmHg 75%
03:00 +5°C° 0 mm 1 mps 744 mmHg 75%
04:00 +5°C° 0 mm 1 mps 744 mmHg 75%
05:00 +6°C° 0 mm 1 mps 744 mmHg 74%
06:00 +5°C° 0 mm 2 mps 745 mmHg 73%
07:00 +6°C° 0 mm 2 mps 745 mmHg 71%
08:00 +6°C° 0.3 mm 2 mps 745 mmHg 74%
09:00 +5°C° 0.3 mm 3 mps 746 mmHg 76%
10:00 +5°C° 0.3 mm 3 mps 746 mmHg 78%
11:00 +7°C° 0.3 mm 3 mps 746 mmHg 71%
12:00 +7°C° 0.3 mm 4 mps 747 mmHg 64%
13:00 +8°C° 0.3 mm 4 mps 747 mmHg 57%
14:00 +7°C° 0.2 mm 4 mps 747 mmHg 65%
15:00 +6°C° 0.2 mm 5 mps 748 mmHg 73%
16:00 +4°C° 0.2 mm 6 mps 748 mmHg 80%
17:00 +5°C° 0.2 mm 5 mps 749 mmHg 83%
18:00 +5°C° 0.2 mm 5 mps 750 mmHg 85%
19:00 +3°C° 0.2 mm 5 mps 750 mmHg 88%
20:00 +4°C° 0 mm 4 mps 751 mmHg 90%
21:00 +3°C° 0 mm 4 mps 751 mmHg 92%
22:00 +1°C° 0 mm 4 mps 751 mmHg 95%
23:00 +2°C° 0 mm 3 mps 752 mmHg 95%

Day after tomorrow, 8 May, Saturday

Time Temperature Precipitation Wind Pressure Humidity
00:00 +1°C° 0 mm 3 mps 752 mmHg 96%
01:00 +1°C° 0 mm 3 mps 753 mmHg 96%
02:00 +1°C° 0 mm 3 mps 753 mmHg 96%
03:00 0°C° 0 mm 3 mps 753 mmHg 97%
04:00 0°C° 0 mm 3 mps 753 mmHg 97%
05:00 0°C° 0 mm 4 mps 754 mmHg 95%
06:00 +1°C° 0 mm 4 mps 754 mmHg 93%
07:00 +2°C° 0 mm 5 mps 754 mmHg 91%
08:00 +3°C° 0 mm 5 mps 755 mmHg 87%
09:00 +4°C° 0 mm 4 mps 755 mmHg 84%
10:00 +5°C° 0 mm 4 mps 755 mmHg 81%
11:00 +6°C° 0 mm 4 mps 755 mmHg 70%
12:00 +8°C° 0 mm 4 mps 755 mmHg 59%
13:00 +11°C° 0 mm 4 mps 755 mmHg 48%
14:00 +11°C° 0 mm 4 mps 755 mmHg 45%
15:00 +12°C° 0 mm 4 mps 755 mmHg 42%
16:00 +12°C° 0 mm 4 mps 755 mmHg 39%
17:00 +11°C° 0 mm 3 mps 755 mmHg 47%
18:00 +10°C° 0 mm 2 mps 755 mmHg 54%
19:00 +9°C° 0 mm 1 mps 755 mmHg 61%
20:00 +8°C° 0 mm 2 mps 755 mmHg 62%
21:00 +7°C° 0 mm 2 mps 755 mmHg 62%
22:00 +6°C° 0 mm 2 mps 755 mmHg 62%
23:00 +5°C° 0 mm 3 mps 755 mmHg 64%

9 May, Sunday

Time Temperature Precipitation Wind Pressure Humidity
00:00 +4°C° 0 mm 3 mps 754 mmHg 66%
01:00 +4°C° 0 mm 3 mps 754 mmHg 68%
02:00 +4°C° 0 mm 4 mps 754 mmHg 69%
03:00 +5°C° 0 mm 4 mps 753 mmHg 70%
04:00 +5°C° 0 mm 4 mps 753 mmHg 70%
05:00 +6°C° 0 mm 4 mps 753 mmHg 69%
06:00 +7°C° 0 mm 4 mps 752 mmHg 68%
07:00 +7°C° 0 mm 4 mps 752 mmHg 66%
08:00 +10°C° 0 mm 5 mps 752 mmHg 61%
09:00 +14°C° 0 mm 5 mps 752 mmHg 55%
10:00 +16°C° 0 mm 5 mps 752 mmHg 49%
11:00 +19°C° 0 mm 5 mps 752 mmHg 48%
12:00 +20°C° 0 mm 5 mps 751 mmHg 46%
13:00 +22°C° 0 mm 5 mps 751 mmHg 44%
14:00 +22°C° 0 mm 5 mps 751 mmHg 47%
15:00 +22°C° 0 mm 5 mps 751 mmHg 49%
16:00 +22°C° 0 mm 5 mps 750 mmHg 52%
17:00 +20°C° 0 mm 5 mps 750 mmHg 59%
18:00 +19°C° 0 mm 4 mps 750 mmHg 66%
19:00 +17°C° 0 mm 4 mps 750 mmHg 73%
20:00 +15°C° 0 mm 4 mps 750 mmHg 76%
21:00 +14°C° 0 mm 4 mps 750 mmHg 79%
22:00 +13°C° 0 mm 4 mps 751 mmHg 82%
23:00 +12°C° 0 mm 4 mps 751 mmHg 82%

10 May, Monday

Time Temperature Precipitation Wind Pressure Humidity
00:00 +11°C° 0 mm 4 mps 751 mmHg 82%
01:00 +10°C° 0 mm 3 mps 751 mmHg 82%
02:00 +10°C° 0 mm 3 mps 751 mmHg 81%
03:00 +8°C° 0 mm 4 mps 751 mmHg 81%
04:00 +8°C° 0 mm 4 mps 750 mmHg 80%
05:00 +10°C° 0 mm 4 mps 750 mmHg 75%
06:00 +12°C° 0 mm 4 mps 750 mmHg 70%
07:00 +13°C° 0 mm 5 mps 750 mmHg 65%
08:00 +15°C° 0 mm 5 mps 750 mmHg 60%
09:00 +17°C° 0 mm 5 mps 750 mmHg 56%
10:00 +19°C° 0 mm 6 mps 750 mmHg 51%
11:00 +20°C° 0 mm 6 mps 750 mmHg 51%
12:00 +21°C° 0 mm 5 mps 750 mmHg 50%
13:00 +22°C° 0 mm 5 mps 749 mmHg 49%
14:00 +23°C° 0 mm 5 mps 750 mmHg 49%
15:00 +23°C° 0 mm 4 mps 750 mmHg 48%
16:00 +25°C° 0 mm 3 mps 750 mmHg 48%
17:00 +22°C° 0 mm 3 mps 750 mmHg 56%
18:00 +21°C° 0 mm 3 mps 750 mmHg 64%
19:00 +19°C° 0 mm 3 mps 750 mmHg 73%
20:00 +18°C° 0 mm 3 mps 750 mmHg 79%
21:00 +17°C° 0 mm 3 mps 750 mmHg 85%
22:00 +14°C° 0 mm 3 mps 750 mmHg 91%
23:00 +14°C° 0 mm 3 mps 750 mmHg 92%

11 May, Tuesday

Time Temperature Precipitation Wind Pressure Humidity
00:00 +14°C° 0 mm 3 mps 749 mmHg 94%
01:00 +13°C° 0 mm 3 mps 749 mmHg 95%
02:00 +13°C° 0 mm 3 mps 749 mmHg 95%
03:00 +13°C° 0 mm 3 mps 749 mmHg 94%
04:00 +12°C° 0 mm 3 mps 748 mmHg 94%
05:00 +14°C° 0 mm 4 mps 748 mmHg 87%
06:00 +15°C° 0 mm 4 mps 749 mmHg 80%
07:00 +16°C° 0 mm 5 mps 749 mmHg 73%
08:00 +19°C° 0 mm 4 mps 748 mmHg 68%
09:00 +21°C° 0 mm 4 mps 748 mmHg 63%
10:00 +22°C° 0 mm 4 mps 748 mmHg 58%
11:00 +23°C° 0 mm 4 mps 748 mmHg 57%
12:00 +25°C° 0 mm 4 mps 748 mmHg 55%
13:00 +26°C° 0 mm 4 mps 748 mmHg 53%
14:00 +25°C° 0 mm 4 mps 748 mmHg 57%
15:00 +25°C° 0 mm 4 mps 748 mmHg 61%
16:00 +23°C° 0 mm 4 mps 748 mmHg 65%
17:00 +22°C° 0 mm 4 mps 748 mmHg 72%
18:00 +20°C° 0 mm 3 mps 749 mmHg 79%
19:00 +19°C° 0 mm 2 mps 749 mmHg 87%
20:00 +18°C° 0 mm 2 mps 749 mmHg 88%
21:00 +18°C° 0 mm 2 mps 749 mmHg 90%
22:00 +17°C° 0 mm 2 mps 749 mmHg 92%
23:00 +17°C° 0 mm 2 mps 749 mmHg 92%
Show more